[[{"header":{"parameterUnit":"m.s-1","parameterCategory":2,"la1":30.2991,"la2":30.254,"lo1":-89.0895,"lo2":-89.0444,"dy":0.0017,"dx":0.0017,"nx":28,"ny":28,"refTime":"2024-05-11T03:00:00:Z","depth":"0","parameterNumber":2,"parameterNumberName":"U-component_of_CURRENTS"},"data":[0,0,0,0,0,0,0,0,0,0,0,0,0,0,0,0,0,0,0,0,0,0,0,0,0,0,0,0,0,0,0,0,0,0,0,0,0,0,0,0,0,0,0,0,0,0,0,0,0,0,0,0,0,0,0,0,0,0,0.3444,0.3444,0,0.3453,0.3454,0.3454,0.3453,0.3453,0.3452,0.3452,0.3504,0.3505,0.3507,0,0,0,0,0,0,0,0,0,0,0,0,0,0.3485,0.3484,0.3444,0.3444,0.3444,0.3453,0.3454,0.3454,0.3453,0.3453,0.3452,0.3452,0.3503,0.3505,0.3507,0,0,0,0,0,0,0,0,0,0,0,0,0,0.348,0.3484,0.3444,0.3442,0.3442,0.3453,0.3454,0.3454,0.3453,0.3453,0.3452,0.3451,0.3502,0.3505,0.3508,0.3536,0,0,0.3516,0.3517,0,0,0,0,0,0,0,0,0.3481,0.3479,0.3443,0.3442,0.3442,0.3449,0.3487,0.3483,0.3453,0.3452,0.3452,0.3451,0.3488,0.3492,0.3498,0.3538,0.3541,0.3516,0.3518,0.3519,0.3519,0,0,0,0,0,0,0,0.3481,0.3479,0.3451,0.3442,0.3442,0.3461,0.346,0.3486,0.3476,0.3452,0.3451,0.3448,0.3488,0.3496,0.35,0.3541,0.3516,0.3518,0.352,0.3521,0.3637,0.3638,0,0,0,0,0,0,0.3471,0.3479,0.345,0.345,0.3457,0.3461,0.3459,0.345,0.3475,0.3477,0.3449,0.3448,0.3492,0.3496,0.3501,0.3591,0.3519,0.3521,0.3523,0.3635,0.3637,0.3638,0,0,0,0,0,0,0.3472,0.3469,0.345,0.3463,0.3462,0.346,0.345,0.345,0.3456,0.3471,0.3475,0.3454,0.3491,0.3498,0.3532,0.3591,0.3522,0.3525,0.3633,0.3636,0.3638,0.3736,0,0,0,0,0,0,0.3473,0.3469,0.3471,0.3462,0.3461,0.3457,0.345,0.3451,0.3454,0.3453,0.3477,0.3481,0.3491,0.3528,0.3535,0.3594,0.3527,0.3631,0.3634,0.3637,0.3731,0.3742,0.3751,0,0,0,0,0,0.3475,0.3479,0.3471,0.3468,0.3459,0.3457,0.3459,0.3458,0.3455,0.3461,0.3481,0.3481,0.3551,0.3531,0.3539,0.36,0.363,0.3634,0.3637,0.3727,0.374,0.375,0,0,0,0,0,0,0.3494,0.3478,0.347,0.3467,0.3461,0.3456,0.3464,0.346,0.3481,0.3483,0.3497,0.3503,0.3572,0.3556,0.3534,0.3638,0.3592,0.3597,0.3658,0.367,0.368,0.3646,0.3529,0,0,0,0,0,0.3499,0.3499,0.3482,0.348,0.3477,0.3471,0.3473,0.3469,0.3479,0.3486,0.3507,0.3534,0.3593,0.3602,0.3645,0.3684,0.3669,0.3726,0.3736,0.3744,0.372,0.3764,0.3776,0.365,0.3649,0.3649,0,0,0.3502,0.3496,0.3494,0.3485,0.3481,0.3476,0.3472,0.3473,0.3487,0.3491,0.353,0.3581,0.3615,0.3683,0.3708,0.3671,0.3775,0.3748,0.3756,0.3726,0.3769,0.3781,0.3792,0.3652,0.3651,0.3651,0,0,0.3496,0.3504,0.3491,0.349,0.3482,0.3489,0.3487,0.3488,0.3511,0.3545,0.3583,0.3647,0.3696,0.3747,0.3777,0.3853,0.3844,0.3879,0.3884,0.393,0.394,0.3949,0.3957,0.3966,0.3862,0.3862,0.3862,0,0.3502,0.3475,0.349,0.3476,0.3474,0.3491,0.3475,0.3511,0.353,0.3563,0.3561,0.3691,0.3727,0.383,0.3863,0.3879,0.3884,0.3846,0.3943,0.3952,0.3959,0.3965,0.3974,0.3867,0.3867,0.3866,0.3866,0,0.3468,0.3457,0.3454,0.3444,0.3457,0.3449,0.3485,0.3521,0.3555,0.3591,0.37,0.3763,0.3825,0.3878,0.3894,0.3989,0.397,0.3973,0.3915,0.3978,0.398,0.3987,0.3875,0.3873,0.3871,0.387,0,0,0.3427,0.3429,0.3421,0.3414,0.3435,0.3438,0.3493,0.3541,0.3588,0.3654,0.3716,0.3847,0.3887,0.3921,0.3979,0.4017,0.4098,0.4011,0.4011,0.4019,0.4175,0.4045,0.4039,0.4127,0.4129,0.413,0.4159,0,0.3381,0.3354,0.3373,0.3361,0.3347,0.3404,0.3456,0.3522,0.3596,0.3674,0.3779,0.387,0.3906,0.3956,0.4009,0.4088,0.4118,0.4087,0.4109,0.4108,0.3987,0.4044,0.3876,0.3877,0.4165,0.4166,0.4167,0,0.3307,0.3308,0.3283,0.3321,0.3323,0.334,0.3428,0.3477,0.3613,0.3674,0.378,0.3865,0.3975,0.3981,0.411,0.4091,0.4126,0.4168,0.417,0.4007,0.399,0.3858,0.3878,0.3796,0.4178,0.4177,0.4176,0,0.3236,0.3236,0.3222,0.3226,0.3282,0.3307,0.3354,0.3475,0.3538,0.3677,0.3734,0.3876,0.3943,0.4027,0.4116,0.4122,0.4223,0.424,0.4151,0.4142,0.3974,0.3946,0.3908,0.4302,0.4302,0.4301,0.4301,0,0.3159,0.3139,0.3191,0.3179,0.3199,0.3258,0.3311,0.3391,0.351,0.3591,0.3726,0.381,0.3958,0.4045,0.4113,0.4139,0.4219,0.4143,0.4142,0.4002,0.3978,0.3875,0.3849,0.4303,0.4302,0.4302,0.4302,0,0.3058,0.3083,0.3075,0.3136,0.3156,0.3173,0.3266,0.3316,0.3436,0.3539,0.3583,0.3765,0.3876,0.3991,0.4121,0.4111,0.404,0.4151,0.3953,0.3926,0.3727,0.3713,0.3501,0.3404,0.4047,0.4044,0.4041,0,0.2997,0.2982,0.3033,0.3041,0.3062,0.3103,0.3139,0.3261,0.332,0.3515,0.3554,0.3704,0.3807,0.3918,0.3937,0.3987,0.3929,0.3823,0.3793,0.3674,0.3661,0.3544,0.3471,0.3628,0.3622,0.3617,0.3614,0,0.29,0.2925,0.2935,0.2953,0.2979,0.3008,0.3069,0.3103,0.3257,0.3345,0.3481,0.3584,0.37,0.3676,0.3703,0.3724,0.3611,0.3723,0.3673,0.3368,0.3166,0.3085,0.3641,0.3572,0.3576,0.3579,0.3581,0.3583,0.2836,0.2826,0.2852,0.2853,0.2879,0.2894,0.2881,0.2966,0.3032,0.3131,0.3317,0.3389,0.3443,0.3467,0.3445,0.3281,0.3322,0.3191,0.3199,0.3102,0.2939,0.3367,0.3249,0.3251,0.3253,0.3255,0.3256,0,0.2739,0.2741,0.2748,0.2741,0.2714,0.2775,0.2809,0.2779,0.2793,0.2945,0.3035,0.3076,0.3022,0.3049,0.2933,0.2795,0.2697,0.2717,0.2555,0.2526,0.2977,0.2891,0.2599,0.2599,0.26,0.26,0.26,0.26,0.2693,0.2652,0.2646,0.2565,0.2559,0.2489,0.2478,0.247,0.253,0.2547,0.2573,0.2653,0.2764,0.2682,0.252,0.2459,0.2309,0.2147,0.2195,0.257,0.2617,0.2661,0.2574,0.2222,0.2221,0.1628,0.1623,0.162]},{"header":{"parameterUnit":"m.s-1","parameterCategory":2,"la1":30.2991,"la2":30.254,"lo1":-89.0895,"lo2":-89.0444,"dy":0.0017,"dx":0.0017,"nx":28,"ny":28,"refTime":"2024-05-11T03:00:00:Z","depth":"0","parameterNumber":3,"parameterNumberName":"V-component_of_CURRENTS"},"data":[0,0,0,0,0,0,0,0,0,0,0,0,0,0,0,0,0,0,0,0,0,0,0,0,0,0,0,0,0,0,0,0,0,0,0,0,0,0,0,0,0,0,0,0,0,0,0,0,0,0,0,0,0,0,0,0,0,0,-0.0054,-0.0054,0,-0.0064,-0.0065,-0.0065,-0.0093,-0.0093,-0.0094,-0.0094,-0.0194,-0.0196,-0.0198,0,0,0,0,0,0,0,0,0,0,0,0,0,-0.0112,-0.0111,-0.0054,-0.0054,-0.0053,-0.0064,-0.0065,-0.0065,-0.0093,-0.0093,-0.0094,-0.0094,-0.0193,-0.0196,-0.0199,0,0,0,0,0,0,0,0,0,0,0,0,0,-0.0105,-0.011,-0.0054,-0.0065,-0.0066,-0.0064,-0.0065,-0.0065,-0.0093,-0.0093,-0.0094,-0.0094,-0.0192,-0.0195,-0.0199,-0.0218,0,0,-0.0211,-0.0212,0,0,0,0,0,0,0,0,-0.0106,-0.0104,-0.0064,-0.0064,-0.0065,-0.0073,-0.0121,-0.0119,-0.0093,-0.0088,-0.0094,-0.0094,-0.0158,-0.0165,-0.0172,-0.0222,-0.0226,-0.0211,-0.0213,-0.0215,-0.0216,0,0,0,0,0,0,0,-0.0106,-0.0104,-0.0063,-0.0063,-0.0064,-0.0087,-0.0087,-0.0121,-0.0127,-0.0088,-0.0089,-0.0083,-0.016,-0.0168,-0.0175,-0.0228,-0.0211,-0.0214,-0.0217,-0.0218,-0.031,-0.031,0,0,0,0,0,0,-0.0092,-0.0104,-0.0063,-0.0063,-0.0081,-0.0085,-0.0085,-0.0074,-0.0125,-0.0131,-0.0082,-0.0084,-0.0162,-0.017,-0.0178,-0.0197,-0.0215,-0.0218,-0.0221,-0.031,-0.031,-0.031,0,0,0,0,0,0,-0.0093,-0.0088,-0.0062,-0.008,-0.0078,-0.0083,-0.0072,-0.0074,-0.0077,-0.0118,-0.0127,-0.0081,-0.0162,-0.0173,-0.0203,-0.0202,-0.022,-0.0223,-0.0309,-0.031,-0.031,-0.0239,0,0,0,0,0,0,-0.0094,-0.0088,-0.0082,-0.0079,-0.0076,-0.0049,-0.0071,-0.0074,-0.007,-0.0072,-0.012,-0.013,-0.0163,-0.0197,-0.0207,-0.0207,-0.0226,-0.0309,-0.031,-0.031,-0.0241,-0.0237,-0.0234,0,0,0,0,0,-0.0096,-0.008,-0.0082,-0.0077,-0.0065,-0.0047,-0.0048,-0.0057,-0.007,-0.0063,-0.01,-0.0128,-0.0207,-0.02,-0.0212,-0.0213,-0.0309,-0.031,-0.031,-0.0243,-0.0238,-0.0234,0,0,0,0,0,0,-0.0103,-0.0081,-0.0083,-0.0061,-0.0049,-0.005,-0.0042,-0.0051,-0.0074,-0.0078,-0.0127,-0.0139,-0.0173,-0.0201,-0.0192,-0.0242,-0.0264,-0.0267,-0.021,-0.0205,-0.0201,-0.0148,-0.023,0,0,0,0,0,-0.0099,-0.0081,-0.0066,-0.0048,-0.0038,-0.0041,-0.0037,-0.0038,-0.0052,-0.0061,-0.0096,-0.0139,-0.0184,-0.0198,-0.0243,-0.0259,-0.0267,-0.027,-0.0266,-0.0263,-0.0228,-0.0245,-0.0238,-0.0311,-0.0311,-0.0311,0,0,-0.0097,-0.0082,-0.0072,-0.0048,-0.0041,-0.0012,-0.004,-0.002,-0.0006,-0.007,-0.0075,-0.0131,-0.0189,-0.0216,-0.0233,-0.0235,-0.0249,-0.0263,-0.0259,-0.0226,-0.0244,-0.0237,-0.023,-0.0312,-0.0312,-0.0312,0,0,-0.0063,-0.0065,-0.003,-0.0015,0.0011,0.0009,0.002,0.0024,0.0015,0.0006,-0.0049,-0.0088,-0.0147,-0.0181,-0.021,-0.0207,-0.0237,-0.0237,-0.016,-0.0178,-0.0171,-0.0165,-0.0168,-0.0163,-0.0223,-0.0223,-0.0223,0,-0.0061,-0.0013,-0.0018,0.0024,0.0043,0.0026,0.0071,0.006,0.0049,0.0045,0.0016,-0.0067,-0.0123,-0.015,-0.0153,-0.0195,-0.0204,-0.0172,-0.0169,-0.0163,-0.0158,-0.0163,-0.0159,-0.0219,-0.022,-0.022,-0.022,0,0.0011,0.0042,0.0066,0.0112,0.0126,0.016,0.0158,0.0159,0.0138,0.0125,0.0091,0.0016,-0.0021,-0.0064,-0.0107,-0.0109,-0.0127,-0.017,-0.0172,-0.0146,-0.0154,-0.015,-0.0215,-0.0216,-0.0217,-0.0218,0,0,0.0049,0.0104,0.0117,0.015,0.0178,0.0203,0.0221,0.0239,0.026,0.0215,0.0235,0.0141,0.0106,0.0073,0.0002,-0.0013,-0.0005,-0.0063,-0.0065,-0.0048,-0.0027,-0.0035,-0.0032,-0.0048,-0.0047,-0.0046,-0.0047,0,0.0113,0.02,0.021,0.0286,0.033,0.0318,0.034,0.0345,0.0328,0.0336,0.0261,0.0241,0.0155,0.0137,0.0107,0.0018,0.001,0.0001,-0.0069,-0.007,-0.0066,-0.0026,0.0011,0.0013,-0.0044,-0.0043,-0.0043,0,0.0199,0.0242,0.0327,0.0379,0.0399,0.0435,0.0474,0.0493,0.0485,0.0472,0.0445,0.0386,0.0348,0.027,0.0177,0.0175,0.0098,0.003,0.0027,0.0008,-0.007,-0.0024,0.0022,-0.0079,-0.0037,-0.0038,-0.0038,0,0.025,0.0329,0.0396,0.0417,0.047,0.0502,0.0526,0.0537,0.0568,0.0568,0.0592,0.0521,0.05,0.0397,0.0255,0.0221,0.0161,0.0087,0.0013,0.0011,0.0027,0.0025,-0.0011,0.0047,0.0047,0.0047,0.0047,0,0.0324,0.038,0.0427,0.0468,0.0551,0.0563,0.0644,0.0655,0.0687,0.0752,0.0672,0.0706,0.0532,0.0466,0.0323,0.0198,0.0213,0.0058,0.002,0.005,0.005,-0.0052,-0.0124,0.0046,0.0046,0.0047,0.0047,0,0.038,0.041,0.0492,0.0554,0.0583,0.0644,0.0729,0.0785,0.0805,0.0891,0.0902,0.0856,0.0778,0.0605,0.0443,0.0298,0.0109,0.0113,0.0168,0.0138,-0.0039,-0.0108,-0.0178,-0.0223,0.004,0.004,0.004,0,0.0418,0.0467,0.0557,0.0612,0.0648,0.0734,0.08,0.0843,0.0914,0.0993,0.1049,0.1003,0.1,0.0764,0.0509,0.0287,0.0141,0.015,0.0084,-0.0009,-0.0115,-0.0178,-0.0216,0.0128,0.0129,0.0129,0.013,0,0.0484,0.0514,0.0579,0.0688,0.0771,0.0868,0.0968,0.1044,0.1117,0.1206,0.1308,0.1317,0.1107,0.091,0.059,0.041,0.0091,0.0153,0.0044,-0.004,-0.0095,-0.0169,0.009,0.0135,0.0134,0.0134,0.0134,0.0133,0.0532,0.0585,0.0667,0.0774,0.0869,0.0995,0.109,0.1213,0.1359,0.1501,0.15,0.1558,0.1258,0.0839,0.0591,0.0167,0.013,0.0024,-0.0049,-0.0101,-0.015,0.0133,0.0134,0.0133,0.0133,0.0132,0.0132,0,0.0591,0.0651,0.0747,0.0875,0.0984,0.1027,0.1198,0.1311,0.1506,0.164,0.1739,0.1654,0.1299,0.0892,0.0328,0.0027,-0.0098,-0.0146,-0.0222,-0.0251,0.0001,-0.0,-0.0011,-0.0011,-0.0011,-0.0011,-0.0011,-0.001,0.0625,0.0721,0.0767,0.0948,0.1041,0.1198,0.1302,0.1483,0.1624,0.1808,0.1866,0.1871,0.1593,0.0621,-0.0007,-0.0167,-0.0374,-0.0424,-0.0535,-0.0363,-0.0353,-0.0343,-0.0361,-0.0447,-0.0447,-0.0736,-0.0739,-0.0742]}],[{"header":{"parameterUnit":"m.s-1","parameterCategory":2,"la1":30.2991,"la2":30.254,"lo1":-89.0895,"lo2":-89.0444,"dy":0.0017,"dx":0.0017,"nx":28,"ny":28,"refTime":"2024-05-11T03:00:00:Z","depth":"2","parameterNumber":2,"parameterNumberName":"U-component_of_CURRENTS"},"data":[0,0,0,0,0,0,0,0,0,0,0,0,0,0,0,0,0,0,0,0,0,0,0,0,0,0,0,0,0,0,0,0,0,0,0,0,0,0,0,0,0,0,0,0,0,0,0,0,0,0,0,0,0,0,0,0,0,0,0.2865,0.2866,0,0.29,0.29,0.29,0.2923,0.2923,0.2924,0.2925,0.2923,0.2922,0.2922,0,0,0,0,0,0,0,0,0,0,0,0,0,0.2825,0.2825,0.2865,0.2866,0.2867,0.29,0.29,0.29,0.2923,0.2923,0.2924,0.2925,0.2923,0.2923,0.2922,0,0,0,0,0,0,0,0,0,0,0,0,0,0.2844,0.2825,0.2865,0.2886,0.2889,0.29,0.29,0.29,0.2923,0.2924,0.2924,0.2925,0.2924,0.2923,0.2922,0.2897,0,0,0.2919,0.2918,0,0,0,0,0,0,0,0,0.2843,0.2845,0.2882,0.2885,0.2888,0.2913,0.2886,0.2899,0.2922,0.2904,0.2925,0.2926,0.2919,0.2918,0.2916,0.2897,0.2897,0.2919,0.2918,0.2918,0.2917,0,0,0,0,0,0,0,0.2841,0.2844,0.2873,0.2883,0.2886,0.2897,0.29,0.2888,0.2901,0.2906,0.2909,0.2921,0.292,0.2917,0.2916,0.2897,0.2919,0.2918,0.2917,0.2917,0.2985,0.2988,0,0,0,0,0,0,0.2846,0.2842,0.2872,0.2875,0.2873,0.2897,0.29,0.2899,0.2902,0.2905,0.292,0.2922,0.2918,0.2917,0.2916,0.2967,0.2918,0.2917,0.2916,0.2983,0.2986,0.2989,0,0,0,0,0,0,0.2845,0.2848,0.2871,0.2864,0.2869,0.2897,0.2896,0.29,0.2912,0.2914,0.2916,0.2932,0.2919,0.2917,0.2922,0.2964,0.2916,0.2916,0.298,0.2984,0.2987,0.3018,0,0,0,0,0,0,0.2843,0.2847,0.2849,0.2864,0.287,0.2899,0.2896,0.29,0.292,0.2923,0.2924,0.2924,0.2919,0.2923,0.2921,0.2962,0.2915,0.2977,0.2982,0.2986,0.3014,0.3022,0.3029,0,0,0,0,0,0.2842,0.2848,0.2849,0.2853,0.2871,0.2901,0.2904,0.2924,0.292,0.2935,0.293,0.2925,0.2952,0.2922,0.2919,0.2962,0.2975,0.2981,0.2986,0.3011,0.3021,0.3029,0,0,0,0,0,0,0.2831,0.2852,0.2853,0.2865,0.289,0.2907,0.2926,0.2928,0.2934,0.2939,0.2926,0.2926,0.2962,0.2953,0.2922,0.3003,0.2975,0.298,0.2995,0.3004,0.3012,0.3023,0.2914,0,0,0,0,0,0.2829,0.2841,0.2863,0.2875,0.289,0.2904,0.2918,0.2934,0.2943,0.2947,0.2946,0.2958,0.2979,0.2981,0.3001,0.3012,0.3016,0.3051,0.3059,0.3065,0.3077,0.3117,0.3129,0.3006,0.3006,0.3006,0,0,0.283,0.2843,0.2851,0.2875,0.2893,0.2916,0.2915,0.295,0.2971,0.2944,0.2969,0.2982,0.2992,0.3027,0.3044,0.3021,0.3101,0.3072,0.3076,0.3085,0.3124,0.3136,0.3146,0.301,0.3009,0.3009,0,0,0.2842,0.285,0.2866,0.2888,0.2926,0.2939,0.2951,0.2978,0.2997,0.3017,0.3021,0.3054,0.3065,0.309,0.31,0.3159,0.3148,0.3177,0.3207,0.3246,0.3256,0.3265,0.327,0.3279,0.317,0.317,0.317,0,0.2844,0.2854,0.2878,0.2901,0.2918,0.2949,0.2968,0.2996,0.3021,0.3037,0.304,0.3093,0.3104,0.3147,0.3181,0.3177,0.3181,0.3162,0.3254,0.3262,0.3271,0.3274,0.3284,0.3172,0.3172,0.3172,0.3172,0,0.2862,0.2876,0.2893,0.2924,0.295,0.2977,0.3017,0.3048,0.307,0.3094,0.3153,0.3172,0.3204,0.3227,0.3218,0.3291,0.3268,0.3262,0.3221,0.3284,0.3285,0.3294,0.3175,0.3174,0.3174,0.3173,0,0,0.2846,0.2893,0.2898,0.2908,0.296,0.298,0.3032,0.3078,0.3114,0.316,0.3203,0.3261,0.328,0.3297,0.3304,0.3338,0.34,0.3325,0.3326,0.3314,0.3463,0.3372,0.3373,0.3403,0.3406,0.3407,0.3433,0,0.2849,0.2878,0.2906,0.2937,0.2951,0.2998,0.3041,0.3094,0.3145,0.3201,0.3252,0.3306,0.3304,0.333,0.3368,0.3402,0.3429,0.3393,0.3419,0.3419,0.3318,0.3383,0.311,0.3104,0.3441,0.3443,0.3444,0,0.2844,0.2864,0.2887,0.2931,0.2944,0.2974,0.3041,0.3088,0.3183,0.3227,0.3293,0.3338,0.341,0.3403,0.3481,0.3454,0.3469,0.3485,0.3486,0.3399,0.3347,0.3102,0.3108,0.3459,0.3458,0.3457,0.3456,0,0.2796,0.2844,0.2854,0.2869,0.2934,0.296,0.3002,0.3093,0.314,0.3252,0.3303,0.3386,0.3437,0.3483,0.3529,0.3511,0.3603,0.3577,0.3502,0.3494,0.3268,0.3236,0.3635,0.3635,0.3635,0.3635,0.3635,0,0.2766,0.2774,0.2834,0.2839,0.2868,0.293,0.2981,0.3046,0.3147,0.3208,0.3311,0.3371,0.3465,0.3527,0.3551,0.3554,0.3619,0.3522,0.3506,0.3269,0.324,0.3555,0.3545,0.3636,0.3636,0.3635,0.3635,0,0.27,0.2739,0.2754,0.282,0.2842,0.2864,0.2953,0.2996,0.3106,0.3193,0.3234,0.3374,0.3456,0.3526,0.3605,0.3569,0.3592,0.3573,0.3276,0.3225,0.3444,0.3437,0.3485,0.3482,0.348,0.3478,0.3476,0,0.2661,0.2664,0.2723,0.2736,0.2763,0.281,0.2845,0.2957,0.3007,0.3182,0.3213,0.3345,0.3408,0.3483,0.3458,0.3464,0.3555,0.3198,0.3123,0.3456,0.3436,0.3431,0.3427,0.2826,0.282,0.2814,0.281,0,0.2591,0.2619,0.2637,0.2663,0.2694,0.2721,0.2783,0.2814,0.2954,0.3027,0.3132,0.3206,0.3294,0.3177,0.3192,0.3162,0.3175,0.3083,0.352,0.2913,0.2839,0.2818,0.2834,0.276,0.2765,0.2769,0.2771,0.2773,0.2539,0.2534,0.2566,0.2575,0.2606,0.2615,0.2599,0.2674,0.2722,0.2797,0.295,0.2954,0.2983,0.2867,0.2776,0.2699,0.2922,0.2777,0.2792,0.2814,0.274,0.2666,0.2539,0.2543,0.2546,0.2549,0.2551,0,0.2456,0.2462,0.2474,0.2472,0.2449,0.2509,0.2534,0.2491,0.2484,0.2589,0.264,0.244,0.236,0.2395,0.2198,0.2185,0.2154,0.2094,0.2023,0.2075,0.2121,0.2009,0.1616,0.1613,0.161,0.1607,0,0,0.2417,0.2384,0.2379,0.2304,0.2305,0.2235,0.2219,0.2183,0.2205,0.2161,0.2135,0.2294,0.2352,0.1966,0.1902,0.1724,0.1892,0.1658,0.2414,0.2387,0.2429,0.2526,0.2415,0,0,0,0,0]},{"header":{"parameterUnit":"m.s-1","parameterCategory":2,"la1":30.2991,"la2":30.254,"lo1":-89.0895,"lo2":-89.0444,"dy":0.0017,"dx":0.0017,"nx":28,"ny":28,"refTime":"2024-05-11T03:00:00:Z","depth":"2","parameterNumber":3,"parameterNumberName":"V-component_of_CURRENTS"},"data":[0,0,0,0,0,0,0,0,0,0,0,0,0,0,0,0,0,0,0,0,0,0,0,0,0,0,0,0,0,0,0,0,0,0,0,0,0,0,0,0,0,0,0,0,0,0,0,0,0,0,0,0,0,0,0,0,0,0,0.0254,0.0253,0,0.0232,0.0232,0.0232,0.0211,0.021,0.021,0.021,0.0184,0.0183,0.0183,0,0,0,0,0,0,0,0,0,0,0,0,0,0.0245,0.0246,0.0254,0.0253,0.0253,0.0232,0.0232,0.0232,0.0211,0.021,0.021,0.021,0.0184,0.0183,0.0183,0,0,0,0,0,0,0,0,0,0,0,0,0,0.024,0.0246,0.0254,0.0239,0.0238,0.0232,0.0232,0.0232,0.0211,0.021,0.021,0.0209,0.0184,0.0183,0.0183,0.0191,0,0,0.0181,0.0181,0,0,0,0,0,0,0,0,0.024,0.0241,0.0242,0.024,0.0238,0.0223,0.0219,0.0217,0.0211,0.0222,0.021,0.0209,0.0196,0.0194,0.0193,0.019,0.0188,0.0181,0.0181,0.0181,0.0181,0,0,0,0,0,0,0,0.0241,0.0241,0.0246,0.0241,0.0239,0.0223,0.0222,0.0219,0.0213,0.0221,0.0219,0.0215,0.0195,0.0194,0.0192,0.0188,0.0181,0.0181,0.018,0.018,0.0166,0.0166,0,0,0,0,0,0,0.0244,0.0242,0.0247,0.0246,0.0237,0.0224,0.0223,0.0229,0.0213,0.021,0.0216,0.0215,0.0195,0.0193,0.0191,0.0206,0.0181,0.018,0.018,0.0166,0.0166,0.0166,0,0,0,0,0,0,0.0244,0.0245,0.0248,0.0241,0.024,0.0224,0.0232,0.0229,0.0227,0.0209,0.0206,0.0216,0.0194,0.0192,0.0193,0.0205,0.018,0.018,0.0166,0.0166,0.0166,0.0232,0,0,0,0,0,0,0.0244,0.0245,0.0253,0.0242,0.0241,0.0249,0.0232,0.0229,0.0225,0.0223,0.0209,0.0206,0.0194,0.0194,0.0193,0.0204,0.0179,0.0166,0.0166,0.0166,0.023,0.0234,0.0238,0,0,0,0,0,0.0244,0.0259,0.0254,0.0254,0.0252,0.0249,0.0247,0.0234,0.0225,0.0229,0.022,0.0206,0.0192,0.0195,0.0193,0.0203,0.0166,0.0166,0.0166,0.0228,0.0233,0.0238,0,0,0,0,0,0,0.0258,0.0258,0.0252,0.0266,0.0258,0.0245,0.0247,0.0237,0.0234,0.0232,0.0215,0.0212,0.0216,0.0197,0.02,0.0195,0.0173,0.0172,0.022,0.0225,0.0229,0.0249,0.0179,0,0,0,0,0,0.0265,0.0279,0.0268,0.0279,0.0277,0.0263,0.026,0.0251,0.0244,0.0242,0.0232,0.0218,0.0214,0.021,0.0201,0.0205,0.0183,0.0205,0.0209,0.0213,0.0225,0.0199,0.0203,0.0166,0.0166,0.0166,0,0,0.0272,0.0274,0.0281,0.0283,0.0276,0.0286,0.026,0.026,0.027,0.024,0.0252,0.0236,0.0218,0.0223,0.0221,0.0209,0.021,0.0213,0.0216,0.0227,0.02,0.0203,0.0207,0.0166,0.0166,0.0166,0,0,0.0294,0.0295,0.0312,0.0312,0.0307,0.0302,0.0303,0.0293,0.029,0.0294,0.0278,0.0271,0.0258,0.0253,0.0247,0.0266,0.0233,0.0254,0.0292,0.0267,0.027,0.0273,0.0247,0.0247,0.0254,0.0254,0.0254,0,0.0301,0.0325,0.0315,0.0331,0.0339,0.0313,0.0333,0.0329,0.032,0.0328,0.0303,0.0294,0.0275,0.0292,0.0295,0.0278,0.0256,0.0281,0.0274,0.0276,0.0278,0.0251,0.025,0.0257,0.0257,0.0256,0.0256,0,0.0336,0.0354,0.0364,0.0382,0.0388,0.04,0.0393,0.0398,0.0387,0.0381,0.0387,0.0358,0.0354,0.0339,0.0324,0.0331,0.0309,0.0286,0.0269,0.0286,0.0256,0.0254,0.0262,0.026,0.0259,0.0259,0,0,0.0358,0.0385,0.0389,0.0413,0.0419,0.0433,0.0451,0.0466,0.049,0.0462,0.0488,0.0462,0.0442,0.0433,0.0407,0.0382,0.0368,0.0343,0.034,0.033,0.0312,0.0297,0.0293,0.0344,0.0344,0.0344,0.0286,0,0.0389,0.0438,0.0441,0.0491,0.0517,0.0511,0.0536,0.0546,0.0542,0.0558,0.0522,0.0531,0.0479,0.048,0.0448,0.0396,0.0366,0.0386,0.0287,0.0284,0.0278,0.0291,0.0306,0.0256,0.0284,0.0283,0.0283,0,0.0426,0.0457,0.0513,0.0562,0.0573,0.0599,0.0647,0.0666,0.0675,0.067,0.0661,0.0631,0.0608,0.055,0.0464,0.0479,0.0404,0.0349,0.0345,0.031,0.0266,0.0242,0.0251,0.0279,0.0279,0.028,0.028,0,0.0462,0.0511,0.0564,0.058,0.0625,0.0655,0.0681,0.0703,0.0741,0.0747,0.0768,0.0719,0.0708,0.0609,0.0492,0.0478,0.0386,0.0349,0.0264,0.0261,0.0245,0.0242,0.0282,0.0283,0.0283,0.0283,0.0283,0,0.0504,0.0547,0.0589,0.0621,0.0696,0.0706,0.0782,0.0797,0.0832,0.0896,0.0834,0.0865,0.0721,0.0651,0.0525,0.0396,0.0407,0.028,0.025,0.0267,0.0266,0.0262,0.026,0.0281,0.0281,0.0282,0.0282,0,0.0541,0.0564,0.0632,0.069,0.0717,0.0773,0.0855,0.0909,0.0929,0.1008,0.1018,0.0977,0.0891,0.0737,0.0579,0.0453,0.032,0.0266,0.0297,0.0272,0.0201,0.0203,0.0168,0.0167,0.0166,0.0166,0.0165,0,0.0566,0.0604,0.0689,0.0738,0.077,0.085,0.0913,0.0957,0.1024,0.1088,0.1136,0.1078,0.1061,0.0818,0.0588,0.0368,0.0328,0.022,0.0195,0.0217,0.0191,0.0195,0.0198,0.0193,0.0192,0.0192,0.0192,0,0.0616,0.0644,0.0702,0.0801,0.0877,0.097,0.1062,0.1131,0.1199,0.1268,0.1339,0.1329,0.1113,0.0899,0.0588,0.043,0.0255,0.0209,0.0228,0.0224,0.0237,0.0213,0.0216,0.019,0.019,0.019,0.0191,0.0191,0.0655,0.0702,0.0776,0.0872,0.0961,0.1078,0.1165,0.1271,0.1393,0.1495,0.1479,0.1463,0.1213,0.0826,0.0551,0.0249,0.027,0.0148,0.015,0.0152,0.017,0.0181,0.0127,0.0127,0.0127,0.0127,0.0127,0,0.0703,0.0756,0.0842,0.0959,0.1058,0.1102,0.1259,0.1351,0.1505,0.158,0.1633,0.1397,0.1158,0.0859,0.0428,0.0176,0.0148,0.0074,0.01,0.0105,0.0108,0.0124,0.0068,0.0067,0.0066,0.0065,0,0,0.0729,0.0812,0.0853,0.1015,0.1102,0.1247,0.1341,0.148,0.1571,0.1648,0.1634,0.1591,0.1251,0.0923,0.0578,0.0325,0.0266,0.0263,0.0339,0.0415,0.0421,0.0181,0.0214,0,0,0,0,0]}],[{"header":{"parameterUnit":"m.s-1","parameterCategory":2,"la1":30.2991,"la2":30.254,"lo1":-89.0895,"lo2":-89.0444,"dy":0.0017,"dx":0.0017,"nx":28,"ny":28,"refTime":"2024-05-11T03:00:00:Z","depth":"4","parameterNumber":2,"parameterNumberName":"U-component_of_CURRENTS"},"data":[0,0,0,0,0,0,0,0,0,0,0,0,0,0,0,0,0,0,0,0,0,0,0,0,0,0,0,0,0,0,0,0,0,0,0,0,0,0,0,0,0,0,0,0,0,0,0,0,0,0,0,0,0,0,0,0,0,0,0.1832,0.1833,0,0.1874,0.1874,0.1874,0.1898,0.1898,0.1899,0.1899,0.1892,0.1892,0.1891,0,0,0,0,0,0,0,0,0,0,0,0,0,0.1757,0.1758,0.1832,0.1833,0.1834,0.1874,0.1874,0.1874,0.1898,0.1898,0.1899,0.19,0.1893,0.1892,0.1891,0,0,0,0,0,0,0,0,0,0,0,0,0,0.1788,0.1758,0.1832,0.1855,0.1857,0.1874,0.1874,0.1874,0.1898,0.1898,0.1899,0.19,0.1893,0.1892,0.1891,0.1868,0,0,0.1888,0.1887,0,0,0,0,0,0,0,0,0.1787,0.179,0.185,0.1853,0.1856,0.1886,0.1845,0.1871,0.1897,0.1877,0.1899,0.19,0.1888,0.1888,0.1887,0.1868,0.1867,0.1888,0.1887,0.1887,0.1886,0,0,0,0,0,0,0,0.1784,0.1789,0.1844,0.1851,0.1855,0.1857,0.1862,0.185,0.1873,0.1879,0.1882,0.1894,0.1889,0.1888,0.1887,0.1867,0.1888,0.1887,0.1886,0.1886,0.1928,0.193,0,0,0,0,0,0,0.179,0.1787,0.1842,0.1845,0.1828,0.1858,0.1864,0.1871,0.1874,0.1877,0.1894,0.1895,0.189,0.1888,0.1887,0.1943,0.1887,0.1886,0.1885,0.1927,0.1929,0.1931,0,0,0,0,0,0,0.1788,0.1794,0.1841,0.1821,0.1828,0.1859,0.1868,0.1872,0.191,0.1887,0.1888,0.1932,0.189,0.1889,0.1912,0.194,0.1885,0.1884,0.1924,0.1927,0.193,0.2001,0,0,0,0,0,0,0.1785,0.1793,0.1814,0.1822,0.183,0.1874,0.1868,0.1872,0.1916,0.192,0.1919,0.1918,0.1891,0.1914,0.1911,0.1937,0.1883,0.1922,0.1926,0.1929,0.1996,0.2005,0.2013,0,0,0,0,0,0.1782,0.18,0.1815,0.1823,0.1853,0.1876,0.188,0.1901,0.1918,0.1938,0.1944,0.192,0.1933,0.1915,0.1911,0.1937,0.1921,0.1925,0.1929,0.1992,0.2004,0.2013,0,0,0,0,0,0,0.1777,0.1805,0.1821,0.1847,0.1875,0.1882,0.1911,0.1925,0.1946,0.1964,0.1938,0.1936,0.1965,0.1947,0.1928,0.1962,0.1924,0.1928,0.1974,0.1985,0.1993,0.202,0.1882,0,0,0,0,0,0.1787,0.1813,0.1836,0.1864,0.1884,0.1907,0.1927,0.1945,0.196,0.1973,0.1973,0.1976,0.1972,0.1978,0.1971,0.1989,0.1991,0.2006,0.2015,0.2022,0.2044,0.2073,0.2086,0.1944,0.1944,0.1943,0,0,0.1795,0.1816,0.1831,0.1867,0.1893,0.1925,0.1921,0.1968,0.1996,0.1966,0.2014,0.2007,0.1984,0.2004,0.2016,0.1997,0.2065,0.2027,0.2033,0.2052,0.2078,0.2092,0.2105,0.1946,0.1946,0.1945,0,0,0.1815,0.1845,0.1874,0.1903,0.1956,0.1965,0.199,0.2024,0.2046,0.2083,0.2069,0.2092,0.2088,0.2081,0.2072,0.2129,0.2108,0.2126,0.2191,0.2219,0.2231,0.2242,0.2263,0.2275,0.2131,0.2131,0.2132,0,0.1829,0.1863,0.1887,0.1927,0.1956,0.1991,0.2028,0.2052,0.209,0.2108,0.2113,0.2136,0.2125,0.2139,0.2166,0.2148,0.2161,0.2149,0.2231,0.2241,0.2251,0.227,0.2282,0.2135,0.2135,0.2134,0.2134,0,0.1862,0.1907,0.1931,0.1988,0.202,0.2062,0.2097,0.2139,0.2172,0.2187,0.2231,0.2226,0.2242,0.224,0.2223,0.2281,0.2267,0.2236,0.2203,0.2269,0.2285,0.2297,0.2141,0.214,0.2138,0.2137,0,0,0.1847,0.1935,0.1951,0.1984,0.2058,0.2079,0.2142,0.2186,0.2226,0.227,0.2314,0.2331,0.2347,0.2343,0.2328,0.236,0.244,0.2343,0.2343,0.2363,0.251,0.2339,0.2335,0.2425,0.2428,0.243,0.2493,0,0.1871,0.1943,0.1983,0.2053,0.2088,0.2141,0.2188,0.2238,0.2279,0.233,0.235,0.2388,0.2377,0.2401,0.2435,0.2438,0.2475,0.2427,0.2444,0.2445,0.2284,0.2344,0.2438,0.2501,0.2504,0.2506,0.2507,0,0.1885,0.1931,0.2003,0.2079,0.2102,0.2153,0.223,0.2279,0.2353,0.2391,0.2446,0.2461,0.2526,0.2505,0.257,0.2544,0.2551,0.2549,0.255,0.2377,0.2296,0.2421,0.2527,0.2526,0.2524,0.2523,0.2522,0,0.1841,0.1939,0.1993,0.2024,0.2119,0.2167,0.2224,0.2304,0.2346,0.2447,0.2493,0.2553,0.2603,0.2631,0.2649,0.2624,0.2709,0.2659,0.251,0.2498,0.2601,0.2589,0.2713,0.2713,0.2713,0.2713,0.2713,0,0.1823,0.1872,0.1986,0.2015,0.208,0.2161,0.2235,0.2303,0.2399,0.2444,0.2533,0.2569,0.2645,0.2688,0.2688,0.2638,0.2743,0.254,0.2507,0.2628,0.2619,0.2609,0.2596,0.2715,0.2715,0.2714,0.2714,0,0.1757,0.1839,0.1904,0.2021,0.2063,0.2114,0.2238,0.228,0.24,0.2469,0.2511,0.2615,0.2668,0.2714,0.2759,0.2668,0.2645,0.2602,0.2752,0.2724,0.2408,0.2398,0.2431,0.2426,0.2421,0.2417,0.2414,0,0.1723,0.1756,0.1892,0.1934,0.1995,0.2086,0.214,0.2267,0.2308,0.2462,0.2476,0.2584,0.263,0.2561,0.2628,0.2612,0.2574,0.2545,0.2458,0.2416,0.2382,0.2379,0.2376,0.2407,0.2406,0.2404,0.2403,0,0.1651,0.1723,0.1777,0.1864,0.1936,0.199,0.2082,0.2095,0.2232,0.2362,0.237,0.238,0.2433,0.2444,0.2461,0.2441,0.2549,0.2496,0.2504,0.2422,0.2387,0.2357,0.2359,0.2387,0.239,0.2391,0.2392,0,0.1603,0.1622,0.1711,0.1765,0.1849,0.1864,0.1926,0.1965,0.2019,0.2183,0.2181,0.2293,0.2406,0.2357,0.237,0.2342,0.2287,0.2187,0.221,0.2229,0.2129,0.2053,0.1936,0,0,0,0,0,0.154,0.1547,0.1598,0.1645,0.1719,0.1763,0.1866,0.1929,0.206,0.2008,0.2083,0.2115,0.2117,0.2175,0.2102,0.2281,0.2307,0.2185,0.2207,0.2299,0.2318,0.2217,0,0,0,0,0,0,0.1499,0.1547,0.1556,0.1529,0.1535,0.1592,0.1651,0.1744,0.1718,0.1862,0.1876,0.1978,0.2019,0.2135,0.2059,0.2076,0.2041,0.2258,0.2252,0.2289,0.2306,0.232,0.2223,0,0,0,0,0]},{"header":{"parameterUnit":"m.s-1","parameterCategory":2,"la1":30.2991,"la2":30.254,"lo1":-89.0895,"lo2":-89.0444,"dy":0.0017,"dx":0.0017,"nx":28,"ny":28,"refTime":"2024-05-11T03:00:00:Z","depth":"4","parameterNumber":3,"parameterNumberName":"V-component_of_CURRENTS"},"data":[0,0,0,0,0,0,0,0,0,0,0,0,0,0,0,0,0,0,0,0,0,0,0,0,0,0,0,0,0,0,0,0,0,0,0,0,0,0,0,0,0,0,0,0,0,0,0,0,0,0,0,0,0,0,0,0,0,0,0.029,0.029,0,0.0285,0.0285,0.0286,0.0292,0.0292,0.0292,0.0292,0.0311,0.0311,0.0311,0,0,0,0,0,0,0,0,0,0,0,0,0,0.0275,0.0276,0.029,0.029,0.029,0.0285,0.0285,0.0286,0.0292,0.0292,0.0292,0.0292,0.0311,0.0311,0.0311,0,0,0,0,0,0,0,0,0,0,0,0,0,0.0278,0.0276,0.029,0.0292,0.0292,0.0285,0.0285,0.0286,0.0292,0.0292,0.0292,0.0292,0.031,0.0311,0.0311,0.0311,0,0,0.0313,0.0313,0,0,0,0,0,0,0,0,0.0278,0.0279,0.0292,0.0292,0.0292,0.0289,0.0287,0.0295,0.0292,0.0293,0.0292,0.0293,0.0305,0.0306,0.0305,0.0311,0.0312,0.0313,0.0314,0.0314,0.0314,0,0,0,0,0,0,0,0.0278,0.0279,0.0289,0.0291,0.0291,0.0283,0.0284,0.0288,0.0299,0.0293,0.0293,0.0291,0.0305,0.0305,0.0306,0.0313,0.0313,0.0314,0.0314,0.0314,0.034,0.034,0,0,0,0,0,0,0.0278,0.0279,0.0289,0.0289,0.0284,0.0283,0.0284,0.029,0.0298,0.0299,0.0291,0.0291,0.0304,0.0305,0.0307,0.0336,0.0314,0.0314,0.0315,0.0339,0.034,0.034,0,0,0,0,0,0,0.0278,0.0279,0.0289,0.0282,0.0283,0.0283,0.029,0.029,0.0296,0.0296,0.0298,0.0297,0.0304,0.0306,0.032,0.0336,0.0314,0.0315,0.0339,0.0339,0.034,0.0376,0,0,0,0,0,0,0.0277,0.0279,0.0288,0.0283,0.0283,0.0294,0.0289,0.029,0.0293,0.0294,0.0302,0.0304,0.0304,0.0319,0.032,0.0336,0.0315,0.0338,0.0339,0.034,0.0374,0.0378,0.0381,0,0,0,0,0,0.0277,0.029,0.0288,0.029,0.0294,0.0295,0.0295,0.0295,0.0294,0.0301,0.0306,0.0304,0.0324,0.032,0.0321,0.0338,0.0338,0.0339,0.034,0.0373,0.0377,0.0381,0,0,0,0,0,0,0.0288,0.0292,0.029,0.0304,0.0301,0.0296,0.0303,0.0298,0.0307,0.0311,0.031,0.0312,0.0331,0.0326,0.0321,0.0345,0.033,0.0331,0.0355,0.0359,0.0362,0.0369,0.0316,0,0,0,0,0,0.0293,0.0307,0.0302,0.0313,0.0313,0.0308,0.0309,0.0308,0.0311,0.0315,0.0319,0.0324,0.0333,0.034,0.0346,0.0359,0.0335,0.0369,0.0372,0.0375,0.038,0.035,0.0351,0.0343,0.0343,0.0343,0,0,0.03,0.0304,0.0312,0.0317,0.0316,0.0324,0.031,0.0316,0.0327,0.0316,0.0337,0.0337,0.0339,0.0357,0.0364,0.0357,0.0364,0.0376,0.0378,0.0383,0.0351,0.0352,0.0352,0.0343,0.0343,0.0343,0,0,0.0319,0.0325,0.034,0.0342,0.0343,0.0341,0.0344,0.0342,0.0347,0.0359,0.0357,0.0365,0.0376,0.0382,0.0386,0.0408,0.0381,0.041,0.0433,0.0404,0.0404,0.0404,0.0371,0.0368,0.0411,0.0411,0.0411,0,0.0326,0.0346,0.0343,0.0355,0.0364,0.0351,0.0367,0.0369,0.0372,0.0383,0.0373,0.0389,0.0389,0.0412,0.0421,0.0416,0.0391,0.0421,0.0408,0.0407,0.0407,0.0372,0.0368,0.0413,0.0413,0.0412,0.0412,0,0.0353,0.0369,0.0378,0.0394,0.0402,0.0414,0.0414,0.0424,0.0425,0.0426,0.0444,0.0436,0.0447,0.0446,0.0442,0.0447,0.0427,0.0415,0.0398,0.041,0.0373,0.0368,0.0415,0.0415,0.0414,0.0414,0,0,0.0368,0.0393,0.0397,0.0417,0.0426,0.0439,0.0458,0.0476,0.0499,0.0489,0.0512,0.0515,0.0505,0.0508,0.0498,0.0472,0.0444,0.0445,0.0443,0.0413,0.0372,0.0352,0.0345,0.0426,0.0425,0.0425,0.0346,0,0.039,0.0426,0.0433,0.0473,0.0493,0.0497,0.052,0.0535,0.0542,0.0559,0.0542,0.056,0.053,0.054,0.0508,0.0468,0.0434,0.0466,0.0366,0.0363,0.0344,0.034,0.0424,0.0343,0.0341,0.0341,0.034,0,0.0412,0.0437,0.0481,0.0524,0.0535,0.0559,0.0605,0.0625,0.0639,0.0643,0.0643,0.0627,0.0609,0.0573,0.0491,0.0512,0.0447,0.0399,0.0395,0.0362,0.0334,0.0329,0.0331,0.0331,0.0332,0.0333,0.0333,0,0.0431,0.0473,0.0516,0.0529,0.0572,0.0602,0.0629,0.0655,0.069,0.0701,0.072,0.0681,0.0676,0.0586,0.0493,0.049,0.0386,0.0368,0.0283,0.0281,0.0306,0.0307,0.0296,0.0296,0.0296,0.0296,0.0297,0,0.0451,0.0487,0.0533,0.0558,0.0624,0.064,0.0708,0.0727,0.0761,0.0808,0.0771,0.0786,0.0677,0.061,0.0506,0.0383,0.0392,0.0286,0.026,0.0323,0.0326,0.0302,0.0304,0.0293,0.0294,0.0295,0.0295,0,0.0465,0.0491,0.0548,0.0607,0.0636,0.0686,0.0767,0.0812,0.0836,0.0893,0.0902,0.0864,0.0776,0.0654,0.0511,0.0411,0.0288,0.0239,0.0316,0.0296,0.0195,0.02,0.0134,0.0132,0.0131,0.013,0.0129,0,0.0475,0.0505,0.0591,0.0636,0.0669,0.0746,0.0801,0.085,0.0898,0.0942,0.0968,0.091,0.0864,0.0647,0.0509,0.03,0.0267,0.0189,0.0187,0.0198,0.0179,0.0186,0.0192,0.0128,0.0127,0.0127,0.0127,0,0.0495,0.0529,0.0579,0.0669,0.0741,0.0824,0.0903,0.0942,0.1,0.1023,0.1019,0.092,0.0818,0.0648,0.0487,0.0337,0.0232,0.0176,0.0177,0.0175,0.019,0.0174,0.0181,0.0123,0.0123,0.0124,0.0124,0,0.0515,0.0551,0.0618,0.07,0.079,0.0874,0.0918,0.0972,0.102,0.1058,0.1052,0.095,0.0892,0.0668,0.0522,0.0371,0.0324,0.0255,0.0251,0.0254,0.0309,0.0346,0.0304,0,0,0,0,0,0.0529,0.057,0.0643,0.0733,0.0821,0.0878,0.0974,0.101,0.1063,0.1063,0.1059,0.0964,0.0759,0.0675,0.052,0.0488,0.0291,0.0296,0.0207,0.0101,0.0105,0.0148,0,0,0,0,0,0,0.0538,0.0604,0.0637,0.0743,0.0808,0.0912,0.0976,0.1016,0.1013,0.104,0.0936,0.09,0.0703,0.0846,0.0509,0.0466,0.038,0.021,0.0205,0.0098,0.0102,0.0106,0.0151,0,0,0,0,0]}]]